Lapse_Rate
9.0 8.7 9.0 9.0 9.0 8.6 9.3 8.9 7.9 7.9 7.9 8.3 8.9 8.7 8.3 8.5 8.6 9.0 8.6 8.5 9.0 9.4 8.9 8.5 8.3 8.1 8.3 8.0 7.9 7.7 6.0 7.9 8.5 9.2 8.6 8.3 7.7 7.3 6.5 6.7 7.0 6.5 6.6 7.2 7.3 7.3 7.2
9.1 9.2 8.7 9.0 9.1 9.3 8.9 8.5 7.8 7.8 7.9 8.2 8.3 8.4 8.2 8.2 8.3 8.4 9.2 9.4 9.3 8.5 8.2 8.7 8.6 8.1 8.2 6.6 9.8 9.6 5.9 8.1 9.3 8.5 8.6 8.3 8.0 8.1 7.0 6.8 6.6 7.1 6.9 7.0 7.3 7.1 7.2
8.4 8.9 8.6 9.3 8.8 9.0 9.0 8.2 8.5 8.4 8.8 8.2 8.4 8.5 8.3 8.4 8.0 8.3 8.2 8.4 9.4 9.0 8.3 8.5 8.2 8.4 8.1 7.9 9.2 8.0 5.7 8.0 9.2 8.7 8.3 8.6 8.7 7.9 7.7 6.5 7.5 7.1 6.5 6.5 6.7 7.0 6.6
8.6 8.5 8.7 9.1 9.4 8.9 9.2 9.2 9.2 8.6 8.3 8.2 8.3 8.4 8.5 8.4 8.5 9.1 9.4 8.7 8.3 8.4 8.3 8.0 7.8 8.6 7.5 9.1 8.9 8.6 6.2 8.1 9.4 9.4 9.0 8.9 8.2 8.1 7.5 7.7 7.0 6.5 6.5 6.5 6.5 6.7 6.9
8.9 8.4 8.8 9.3 9.3 9.1 9.2 9.1 9.4 8.9 8.4 9.2 9.1 8.6 9.0 9.2 9.3 8.9 8.7 8.3 7.9 8.1 8.3 8.6 7.9 8.2 7.1 9.0 7.7 7.7 8.0 8.1 8.8 9.1 8.9 8.8 6.7 7.5 7.4 6.5 6.5 6.5 6.5 6.5 6.5 6.8 6.5
7.9 8.4 9.2 9.3 9.1 9.1 8.7 9.2 9.2 9.2 9.2 8.6 8.0 7.9 7.8 7.7 8.0 8.2 8.1 7.8 7.5 7.6 8.3 9.3 8.5 7.0 8.0 7.8 7.6 7.7 8.5 7.5 7.9 8.2 7.6 7.5 6.6 6.5 6.5 6.5 6.5 6.5 6.5 6.5 6.5 6.5 6.5
7.0 9.0 9.0 9.2 8.8 9.0 9.0 9.0 9.1 9.0 8.6 8.1 7.8 7.6 7.8 7.8 7.6 8.0 7.6 7.7 8.2 7.9 7.8 7.5 7.5 7.4 7.9 8.4 7.8 6.6 7.5 6.9 7.4 7.7 6.5 6.9 6.5 6.5 6.5 6.5 6.5 6.5 6.5 6.5 6.5 6.5 6.5
6.6 7.5 8.5 9.2 9.2 9.3 9.1 8.9 8.6 8.5 8.1 7.7 7.7 7.2 7.5 7.1 7.4 7.2 7.3 8.0 8.1 8.1 6.8 8.2 8.1 7.5 8.3 8.1 7.3 5.6 7.4 6.7 6.9 6.5 6.5 6.5 6.5 6.5 6.5 6.5 6.5 6.5 6.5 6.5 6.5 6.5 6.5
6.2 6.6 8.1 8.7 9.3 9.3 9.0 8.6 8.8 8.1 7.8 7.6 7.2 7.6 7.4 7.0 6.3 7.0 8.0 7.9 8.1 8.4 6.8 7.3 7.6 7.6 7.8 6.9 7.2 7.1 7.3 7.1 6.5 6.5 6.5 6.5 6.5 6.5 6.5 6.5 6.5 6.5 6.5 6.5 6.5 6.5 6.5
5.5 5.5 7.7 8.9 9.2 9.3 9.1 8.7 8.3 7.7 7.7 7.2 6.7 6.5 7.3 6.7 8.2 7.6 8.2 7.9 7.8 8.3 6.5 6.5 6.7 7.0 7.3 7.4 6.7 8.2 6.0 6.8 6.6 6.5 6.5 6.5 6.6 6.5 6.5 6.5 6.5 6.5 6.5 6.5 6.5 6.5 6.5
5.4 5.2 6.4 7.9 8.4 8.3 8.5 8.6 8.1 7.7 7.1 6.6 6.3 5.8 6.1 6.3 7.4 8.1 7.1 6.7 7.4 8.0 6.5 6.5 6.7 7.2 7.8 7.0 7.0 6.7 6.5 7.2 6.5 6.5 6.5 6.5 6.5 6.5 6.5 6.5 6.5 6.5 6.5 6.5 6.5 6.5 6.5
5.2 5.1 6.2 6.4 7.2 7.6 7.1 8.4 8.1 7.3 6.3 5.8 5.9 5.9 5.4 6.1 7.1 6.2 6.5 7.4 7.8 6.5 6.5 6.5 6.7 6.5 6.5 6.8 6.8 6.9 7.2 6.7 7.3 6.5 6.5 6.5 6.8 6.5 6.5 6.5 6.5 6.5 6.5 6.5 6.5 6.5 6.5
5.0 5.1 5.3 5.7 6.1 6.8 5.8 6.0 5.9 5.9 6.3 5.0 6.1 6.3 5.9 6.0 7.2 6.3 7.1 8.0 6.5 6.5 6.5 6.5 6.5 6.5 6.5 6.5 6.5 6.5 6.5 6.5 6.5 6.5 6.5 6.5 6.5 6.5 6.6 6.5 6.5 6.5 6.5 6.5 6.5 6.5 6.5
5.2 5.1 5.1 5.4 5.4 5.5 5.4 5.1 5.2 5.0 5.1 5.0 5.6 5.9 6.4 6.6 6.5 6.8 7.8 6.6 6.5 6.5 6.5 6.5 6.5 6.5 6.5 6.5 6.5 6.5 6.5 6.5 6.5 6.5 6.5 6.5 6.5 6.5 6.5 6.5 6.5 6.5 6.5 6.5 6.5 6.5 6.5
5.1 5.1 4.9 5.0 5.0 4.9 4.9 5.0 4.9 5.1 4.3 4.6 4.1 5.9 6.8 7.4 5.9 6.7 7.5 6.5 6.5 6.5 6.5 6.5 6.5 6.5 6.5 6.5 6.5 6.5 6.5 6.5 6.5 6.5 6.5 6.5 6.5 6.5 6.5 6.5 6.5 6.5 6.5 6.5 6.5 6.5 6.5
5.2 5.2 5.0 5.0 4.9 4.5 4.6 4.5 4.6 4.8 4.6 4.1 4.4 5.3 6.5 5.0 4.3 5.9 6.6 6.5 6.5 6.6 6.5 6.5 6.5 6.5 6.5 6.5 6.5 6.5 6.5 6.5 6.5 6.5 6.6 6.5 6.5 6.5 6.5 6.6 6.6 6.5 6.5 6.5 6.5 6.5 6.5
5.2 5.3 5.2 5.2 4.8 4.7 4.1 4.2 4.0 4.4 4.6 3.4 4.4 6.7 6.4 3.6 4.1 7.0 6.5 6.5 6.5 7.0 6.9 6.5 6.5 6.5 6.5 6.5 6.5 6.5 6.5 6.5 6.5 6.5 6.6 6.5 6.5 6.5 6.5 6.5 6.5 6.5 6.5 6.5 6.5 6.5 6.5
5.1 5.3 5.3 5.0 5.0 4.8 4.3 4.0 4.0 4.0 4.4 3.9 4.2 6.5 5.6 4.1 6.7 6.7 6.5 6.5 6.9 6.6 7.1 6.5 6.5 6.5 6.5 6.5 6.5 6.5 6.5 6.5 7.0 6.7 6.5 6.5 6.5 6.5 6.5 6.5 6.5 6.5 6.5 6.5 6.5 6.5 6.5
5.2 5.2 5.3 5.2 5.2 4.7 4.7 4.2 4.1 4.3 4.8 4.4 5.9 5.6 5.0 4.8 6.5 6.5 6.6 6.5 6.7 6.5 6.5 6.5 6.5 6.5 6.5 6.5 6.5 6.5 6.5 6.8 7.0 6.5 6.5 6.5 6.5 6.5 6.5 6.5 6.5 6.5 6.5 6.5 6.5 6.5 6.5
5.1 5.3 5.2 5.7 5.2 5.2 4.7 4.4 4.2 4.3 4.7 5.0 6.7 6.5 6.1 6.6 7.6 6.5 6.5 6.5 6.5 7.0 6.6 6.8 6.5 6.6 6.5 6.5 6.5 6.5 6.5 6.5 7.0 6.8 6.5 6.7 6.5 6.5 6.5 6.5 6.5 6.5 6.5 6.5 6.5 6.5 6.5
5.2 5.4 5.5 5.9 5.5 5.5 4.7 4.4 4.3 4.1 4.4 5.4 6.7 6.8 7.3 6.5 6.6 6.5 6.5 6.5 6.5 6.5 6.8 6.9 6.5 6.5 6.5 6.5 6.5 6.5 6.5 6.5 6.7 6.8 6.7 6.5 6.5 6.5 6.5 6.5 6.5 6.5 6.5 6.5 6.5 6.5 6.5
5.0 5.5 5.8 5.8 6.2 5.7 5.2 4.6 4.3 4.3 4.0 6.9 7.2 6.9 7.6 7.1 7.1 6.5 6.5 6.5 6.5 6.5 6.5 6.5 6.5 6.5 6.5 6.5 6.5 6.5 6.5 6.5 6.5 6.5 6.5 6.5 6.5 6.5 6.5 6.5 6.5 6.5 6.5 6.5 6.5 6.5 6.5
5.1 5.4 5.9 6.0 6.3 6.3 5.9 5.7 4.8 4.8 4.4 7.6 6.8 7.1 7.0 6.9 6.6 6.5 6.5 6.5 6.5 6.6 6.8 6.9 6.6 6.5 6.5 6.5 7.0 7.1 7.2 7.0 6.6 6.5 6.5 6.5 6.5 6.5 6.5 6.5 6.5 6.5 6.5 6.5 6.5 6.5 6.5
5.3 5.3 5.9 5.9 6.2 7.1 6.9 6.7 5.9 5.7 5.0 5.4 6.3 6.1 7.0 6.5 6.5 6.5 6.5 6.6 6.5 6.5 6.5 6.8 7.1 6.5 7.1 7.2 7.3 7.6 7.3 7.0 6.9 6.6 6.8 6.5 6.5 6.5 6.5 6.5 6.5 6.5 6.5 6.5 6.5 6.5 6.5
5.3 5.2 5.9 6.2 6.1 6.6 7.6 7.5 6.9 7.1 5.9 6.3 6.3 5.9 6.9 6.5 6.7 6.6 6.6 6.5 6.9 7.0 6.6 6.7 7.1 7.1 6.9 7.3 6.5 6.5 6.5 6.5 6.5 6.5 6.5 6.5 6.5 6.5 6.5 6.5 6.5 6.5 6.5 6.5 6.5 6.5 6.5
5.1 5.4 5.7 6.0 6.1 6.6 7.7 7.9 7.5 7.7 7.3 6.8 6.3 6.5 6.4 6.8 6.6 7.2 6.7 6.9 6.5 6.5 6.5 6.9 6.8 6.3 6.7 6.5 6.5 6.5 6.5 6.5 6.5 6.5 6.5 6.5 6.5 6.5 6.5 6.5 6.5 6.5 6.5 7.0 6.6 6.5 6.6
5.1 5.4 6.0 6.4 6.5 6.6 7.3 8.1 7.9 8.0 8.2 7.3 7.0 6.3 6.7 7.1 7.7 7.4 6.7 6.7 7.3 6.8 6.5 6.8 7.1 7.0 6.7 6.5 6.5 6.5 6.5 6.5 6.5 6.5 6.5 6.5 6.5 6.5 6.5 6.5 6.5 6.5 6.6 7.0 6.5 6.5 6.8
6.3 6.2 7.1 7.2 7.0 7.2 7.1 7.8 8.2 8.2 8.5 7.9 7.7 6.7 7.2 7.5 7.6 6.9 7.5 7.4 7.0 7.2 6.5 7.0 6.8 6.8 6.6 6.5 6.5 6.5 6.5 6.5 6.5 6.5 6.5 6.5 6.5 6.5 6.5 6.5 6.5 6.8 6.7 6.5 6.6 6.7 7.0
7.5 7.4 7.5 7.6 7.7 7.6 7.7 7.6 8.0 8.5 8.5 7.9 7.6 7.1 7.6 7.6 6.9 6.8 6.6 6.0 6.6 7.0 6.8 7.1 7.0 6.9 6.9 6.5 6.5 6.5 6.5 6.5 6.5 6.5 6.5 6.5 6.5 6.5 6.5 6.5 6.7 7.2 6.8 6.9 6.0 7.2 7.3
Wind_Speed
18 20 23 23 24 24 28 28 28 25 23 23 23 24 20 16 14 15 14 14 14 13 12 11 10 10 7 11 13 7 8 6 24 20 20 19 23 18 15 16 12 13 5 8 6 6 5
19 22 22 24 24 28 27 29 30 27 23 24 24 24 21 18 16 15 15 16 13 13 15 11 9 6 8 15 9 17 8 10 17 24 21 19 18 17 15 12 13 12 6 8 10 7 4
21 23 24 25 26 26 28 29 28 27 25 26 24 22 21 19 16 13 15 16 15 15 14 13 11 5 8 16 4 4 4 9 10 24 23 19 12 17 12 7 9 4 12 13 8 9 10
19 21 24 25 27 26 30 30 28 26 28 26 23 22 20 16 16 16 16 15 16 16 16 14 11 5 7 12 21 9 7 8 10 17 18 17 10 16 9 7 11 13 6 9 11 16 6
21 23 23 25 26 25 26 28 29 29 29 27 26 24 22 19 17 15 15 14 15 16 16 13 3 3 5 3 6 10 10 10 15 20 16 14 5 13 8 14 9 14 10 17 5 10 13
19 21 23 25 26 29 26 26 29 31 31 30 29 24 21 19 19 14 13 14 13 3 3 8 6 3 7 12 6 6 4 6 13 21 15 17 6 8 14 15 15 17 16 14 14 7 10
19 21 23 24 27 28 30 28 29 31 32 33 31 25 23 20 16 13 3 3 2 3 2 2 2 4 2 5 7 3 1 6 12 20 14 19 5 14 20 19 0 8 16 9 7 6 7
19 21 23 24 27 28 28 28 30 30 31 31 31 27 22 19 7 7 3 0 1 3 2 2 5 2 12 8 5 5 5 7 24 22 14 11 14 14 14 14 7 12 13 10 5 5 6
18 21 22 24 26 27 28 28 29 30 30 28 30 27 21 17 17 5 3 2 2 2 1 5 5 4 7 7 4 7 4 11 21 20 15 16 6 14 16 14 12 9 12 10 4 6 1
17 19 22 24 25 27 27 28 29 30 28 26 27 21 20 3 5 2 3 6 3 1 1 2 2 3 3 3 5 3 3 1 5 9 6 3 6 18 18 18 14 11 4 8 8 7 3
16 18 21 23 25 26 27 27 28 29 28 25 21 20 12 17 2 3 7 5 1 2 2 4 2 2 2 5 5 3 3 4 10 12 5 4 7 14 17 18 14 4 7 6 5 3 1
15 17 21 23 24 26 27 27 27 27 26 25 16 16 9 5 6 4 4 3 3 3 9 5 6 3 4 4 4 5 5 9 4 9 14 5 4 5 3 8 6 11 10 7 4 1 4
14 16 20 22 24 26 28 29 28 27 25 25 17 8 5 1 1 5 5 4 2 7 2 6 5 1 7 5 8 5 5 5 4 5 4 2 4 2 8 7 5 3 9 4 3 3 2
13 15 19 22 24 26 27 29 30 30 28 26 19 9 1 2 3 4 3 2 10 4 4 4 5 10 5 4 6 6 4 5 7 9 5 3 4 2 2 1 6 7 4 2 3 4 3
11 14 17 20 22 25 26 29 30 31 31 26 10 2 2 1 3 2 2 7 3 1 2 4 7 5 5 9 5 2 4 3 3 4 4 4 4 4 2 2 3 3 4 2 4 2 2
10 13 16 18 21 24 26 28 30 32 31 22 3 2 2 6 1 2 1 6 2 2 2 2 3 2 4 4 3 3 3 2 2 2 1 3 6 2 5 3 9 2 8 3 0 4 4
10 12 14 18 20 23 25 27 30 32 33 12 2 1 1 7 3 5 4 4 2 3 3 3 2 4 3 4 4 3 2 2 2 2 3 6 3 3 3 2 6 4 3 2 1 2 2
9 11 14 16 20 23 25 27 29 31 32 7 3 2 2 3 4 3 3 4 5 6 4 3 4 5 4 3 3 2 2 1 2 2 3 2 5 5 2 2 3 1 2 3 2 3 1
8 11 12 15 17 21 25 27 29 30 27 4 3 3 1 3 3 3 1 1 1 5 4 3 2 1 1 4 3 2 2 3 2 1 4 5 3 5 4 2 1 4 4 2 4 2 4
7 9 11 14 15 19 22 26 28 30 27 2 3 1 3 3 2 1 2 4 3 2 2 2 2 2 3 2 3 4 3 3 1 2 6 3 3 1 0 3 3 4 8 9 4 3 4
7 8 10 12 12 16 20 23 26 30 27 2 3 2 2 2 3 3 1 1 0 2 3 4 2 1 2 3 2 3 2 4 3 2 2 1 3 0 1 1 2 3 6 12 8 5 5
7 7 9 10 12 13 16 19 24 28 23 3 3 3 2 3 3 1 2 1 1 1 2 1 2 2 1 2 0 5 5 3 2 2 2 2 3 1 0 0 5 5 9 9 13 13 12
7 7 8 10 11 10 11 15 19 23 15 4 2 1 1 3 3 2 1 0 1 1 1 1 5 3 4 2 1 2 1 2 3 5 3 3 5 1 1 2 3 8 15 17 10 9 12
8 8 8 10 11 12 9 11 14 16 12 1 2 2 2 3 3 2 1 2 2 3 2 2 2 3 4 4 5 8 9 8 6 5 2 6 5 1 1 1 4 2 2 4 16 9 15
10 9 9 8 9 9 7 8 9 11 9 3 2 2 2 3 4 8 4 4 2 1 1 0 1 2 6 3 3 4 2 1 4 5 1 1 4 2 2 3 6 2 3 5 6 0 13
11 10 10 8 9 8 8 7 6 7 5 3 1 2 2 4 2 4 3 4 3 3 3 2 2 1 0 1 2 3 3 2 3 2 4 4 2 3 1 3 3 3 3 2 3 5 5
13 11 11 10 9 8 9 7 6 7 3 2 0 2 2 3 3 3 4 3 2 1 2 3 4 3 1 2 3 3 3 2 4 4 4 3 2 7 5 4 5 4 4 1 3 4 1
15 12 11 10 10 10 9 9 7 7 6 3 1 2 1 3 7 5 4 5 2 2 3 3 4 3 3 5 4 3 4 5 4 3 4 8 5 3 5 5 6 2 4 3 1 0 1
16 14 12 11 10 10 10 12 12 8 8 7 2 3 3 3 5 5 12 14 11 9 4 2 3 3 4 3 2 2 3 3 3 3 4 5 5 3 7 3 1 2 1 2 2 8 7
Wind_Direction
351 342 343 342 338 339 333 328 332 332 326 323 319 316 321 307 311 308 307 302 293 294 291 279 270 277 278 228 234 127 354 199 196 190 198 194 189 196 187 198 191 221 188 192 172 152 135
347 348 344 341 342 341 335 334 334 335 327 322 321 323 324 314 310 300 301 300 294 298 290 272 272 265 226 243 250 250 186 293 202 195 192 196 196 189 195 193 198 203 203 192 206 200 163
350 347 346 347 347 340 338 341 342 336 332 327 326 323 317 312 312 297 299 300 297 299 291 278 281 246 241 234 205 52 172 257 207 188 186 201 198 183 159 155 204 185 206 228 203 202 226
350 349 347 352 346 344 344 344 342 336 333 331 328 321 317 313 308 311 300 295 298 294 290 279 273 237 249 250 246 259 214 228 208 184 188 196 205 192 197 130 167 192 204 191 210 209 202
348 348 348 347 345 345 343 348 340 340 336 332 334 329 322 317 307 304 309 306 300 301 293 275 203 197 248 191 213 223 183 200 179 181 193 193 190 181 160 169 160 193 208 211 168 203 205
351 349 347 347 344 343 340 348 343 339 339 337 327 321 310 299 296 296 302 304 307 286 96 107 91 151 249 206 155 171 165 186 151 167 180 193 195 177 183 183 195 190 205 207 206 163 203
353 350 349 349 344 351 352 350 343 343 338 344 344 334 320 305 277 275 349 321 189 154 211 304 132 257 223 156 163 91 338 127 177 166 177 189 194 187 185 194 57 181 196 189 209 140 207
353 347 349 349 349 349 346 349 348 346 348 359 359 351 354 346 330 120 114 133 349 13 167 307 301 335 275 292 141 54 315 214 162 163 160 169 209 206 183 180 164 183 189 184 107 165 230
349 351 349 349 351 350 349 350 351 349 354 3 2 4 21 64 79 75 82 36 339 12 293 57 41 304 302 313 104 192 229 145 162 162 175 181 208 193 186 179 183 191 198 172 153 149 112
351 351 348 350 351 350 351 350 352 352 354 5 7 12 20 152 48 11 53 341 39 330 144 24 78 283 245 193 84 341 8 342 54 173 103 152 299 188 186 188 183 180 170 152 139 184 210
350 349 350 352 352 351 349 351 352 354 354 355 11 12 34 41 74 43 327 335 170 220 131 21 122 277 85 24 119 92 226 347 114 144 153 185 227 173 186 187 192 115 156 124 117 140 251
351 348 349 352 352 352 351 350 350 354 352 345 353 23 16 41 59 359 331 334 258 250 40 25 14 58 110 198 176 101 82 46 65 79 77 33 0 28 101 77 76 134 109 85 91 104 231
351 347 351 351 353 353 351 350 347 348 350 342 340 351 50 82 45 313 304 288 306 42 246 8 74 288 96 81 71 48 79 100 139 125 78 31 46 35 110 79 90 80 167 139 175 189 250
350 347 350 353 355 352 353 350 346 345 346 340 329 294 13 62 263 281 319 269 51 330 26 231 99 68 50 85 48 19 83 83 42 102 104 89 109 59 231 133 173 177 238 263 190 180 139
351 349 349 355 354 353 354 352 348 345 342 340 331 263 272 317 320 237 308 56 27 4 260 112 88 74 86 73 103 81 41 72 43 9 90 121 83 97 128 120 160 172 216 20 95 61 230
348 345 349 353 355 354 353 353 350 344 342 340 316 287 281 328 273 198 38 88 84 227 292 248 81 305 140 106 124 125 21 34 89 54 272 124 111 43 157 153 55 249 134 168 248 184 224
342 346 347 350 355 352 355 356 353 348 344 347 308 299 64 336 214 45 48 54 15 16 353 4 114 116 117 143 130 99 115 145 194 94 123 136 98 150 193 210 177 151 190 78 102 312 274
336 347 344 350 353 353 353 356 358 354 350 8 328 45 23 315 55 49 28 335 327 344 5 49 87 85 153 163 123 153 164 145 140 146 97 79 106 151 151 34 306 290 209 208 255 170 31
333 343 340 347 350 355 353 355 358 358 359 325 354 310 2 303 89 70 15 26 260 10 15 19 78 27 119 158 159 131 84 3 186 81 154 163 108 125 161 197 190 219 195 156 103 68 198
323 342 337 339 349 354 354 355 357 357 356 350 325 329 340 48 28 67 53 29 10 47 30 9 90 128 130 108 30 142 131 36 355 50 70 97 110 298 238 86 117 191 194 194 167 181 175
311 335 338 337 343 353 356 358 358 359 355 320 9 41 338 341 47 1 354 137 38 13 5 18 120 102 162 146 126 136 137 134 77 80 54 49 106 73 38 68 190 217 198 194 205 194 210
300 321 331 330 340 350 355 0 2 4 355 61 21 349 332 292 310 325 313 126 189 159 278 70 167 81 233 166 20 185 163 200 153 141 118 27 108 82 19 43 250 265 243 221 223 235 252
287 307 322 333 333 335 355 2 8 12 16 41 354 320 339 321 303 217 158 350 280 227 141 103 134 118 85 30 273 343 313 112 148 162 133 131 138 165 230 354 282 265 232 212 206 209 221
274 288 303 322 337 336 341 355 10 14 37 19 16 305 310 291 286 289 293 259 254 276 243 146 185 144 121 121 116 101 86 82 90 72 130 155 119 140 299 251 236 77 121 216 214 229 222
259 269 290 310 320 316 313 335 355 8 34 24 353 346 320 282 291 284 261 250 208 119 98 96 58 25 154 157 127 130 78 85 57 44 66 213 144 141 259 244 305 203 159 167 181 173 225
246 260 274 294 306 313 318 317 318 342 22 48 17 332 314 311 249 291 304 295 227 176 149 107 90 128 71 81 157 171 192 188 181 162 38 93 76 223 151 268 252 69 111 217 204 168 175
232 246 263 278 295 299 310 299 301 303 340 87 337 7 280 272 271 242 240 269 296 250 180 144 164 180 232 173 184 181 175 178 195 201 174 162 161 219 218 265 280 248 223 341 227 93 117
230 241 257 268 281 290 295 299 283 293 268 176 269 214 282 276 278 257 266 252 267 250 199 122 146 183 179 210 205 171 200 189 192 187 180 189 192 200 204 228 257 152 129 196 1 24 283
226 237 239 253 271 280 289 294 295 262 277 195 238 192 208 233 275 295 269 261 255 264 281 223 319 178 178 192 206 151 171 163 193 220 183 209 211 189 214 229 3 217 245 299 259 294 300